SAS506 ENBR-ENGM

Flight info

Callsign SAS506
Flight time N/A
Altitude 29000
Route GOKAB DCT ULVAN DCT ADOPI
Aircraft B38M/M-SDE1FGHILORVWXY/HB1

Departure

Time 2026-04-29 20:14
Airport Bergen Airport, Flesland (ENBR)

Arrival

Time N/A
Airport Oslo-Gardermoen International Airport (ENGM)
Time Latitude Longitude Altitude Speed Heading
2026-04-29 19:33 60.28891 5.22532 151 ft 0 kts 102°
2026-04-29 20:00 60.28895 5.22496 151 ft 3 kts 102°
2026-04-29 20:01 60.28899 5.22455 151 ft 3 kts 115°
2026-04-29 20:01 60.28912 5.22423 151 ft 3 kts 160°
2026-04-29 20:01 60.28914 5.22422 151 ft 0 kts 164°
2026-04-29 20:08 60.28913 5.22422 151 ft 1 kts 166°
2026-04-29 20:08 60.28888 5.22427 151 ft 6 kts 176°
2026-04-29 20:08 60.28819 5.22398 151 ft 7 kts 222°
2026-04-29 20:08 60.28778 5.22334 150 ft 4 kts 194°
2026-04-29 20:09 60.28720 5.22348 150 ft 15 kts 171°
2026-04-29 20:09 60.28595 5.22393 149 ft 21 kts 167°
2026-04-29 20:09 60.28433 5.22450 148 ft 26 kts 171°
2026-04-29 20:09 60.28251 5.22508 146 ft 25 kts 171°
2026-04-29 20:10 60.28098 5.22538 144 ft 19 kts 194°
2026-04-29 20:10 60.28055 5.22464 144 ft 0 kts 264°
2026-04-29 20:12 60.28054 5.22429 144 ft 7 kts 264°
2026-04-29 20:12 60.28056 5.22279 141 ft 8 kts 299°
2026-04-29 20:12 60.28099 5.22230 142 ft 0 kts 347°
2026-04-29 20:12 60.28101 5.22229 142 ft 4 kts 347°
2026-04-29 20:13 60.28128 5.22218 143 ft 0 kts 350°
2026-04-29 20:13 60.28227 5.22187 145 ft 45 kts 351°
2026-04-29 20:14 60.28764 5.22007 150 ft 109 kts 351°
2026-04-29 20:14 60.29679 5.21666 161 ft 155 kts 346°
2026-04-29 20:14 60.30791 5.21191 361 ft 175 kts 348°
2026-04-29 20:14 60.32024 5.20851 962 ft 165 kts 353°
2026-04-29 20:15 60.33153 5.20539 1454 ft 168 kts 351°
2026-04-29 20:15 60.34343 5.20140 1781 ft 182 kts 351°
2026-04-29 20:15 60.35653 5.19693 2044 ft 198 kts 351°
2026-04-29 20:15 60.37062 5.19216 2290 ft 212 kts 351°
2026-04-29 20:16 60.38563 5.18709 2529 ft 225 kts 350°
2026-04-29 20:16 60.40150 5.18202 2705 ft 236 kts 355°
2026-04-29 20:16 60.41738 5.19091 2877 ft 245 kts 35°
2026-04-29 20:16 60.42717 5.21873 3357 ft 255 kts 71°
2026-04-29 20:17 60.42936 5.25482 4140 ft 263 kts 90°
2026-04-29 20:17 60.42867 5.29228 4990 ft 268 kts 92°
2026-04-29 20:17 60.42826 5.33044 5817 ft 274 kts 89°
2026-04-29 20:17 60.42873 5.36942 6683 ft 279 kts 87°
2026-04-29 20:18 60.42930 5.40901 7509 ft 284 kts 87°
2026-04-29 20:18 60.42962 5.44936 8301 ft 289 kts 87°
2026-04-29 20:18 60.42984 5.48989 9093 ft 293 kts 87°
2026-04-29 20:18 60.43012 5.53163 9883 ft 298 kts 87°
2026-04-29 20:19 60.43044 5.57411 10628 ft 303 kts 87°
2026-04-29 20:19 60.43075 5.61765 11205 ft 315 kts 87°
2026-04-29 20:19 60.43103 5.66304 11678 ft 329 kts 87°
2026-04-29 20:19 60.43131 5.70995 12150 ft 343 kts 87°
2026-04-29 20:20 60.43157 5.75885 12776 ft 350 kts 86°
2026-04-29 20:20 60.43182 5.80860 13479 ft 356 kts 86°
2026-04-29 20:20 60.43206 5.85901 14224 ft 360 kts 86°
2026-04-29 20:20 60.43229 5.91002 14916 ft 364 kts 86°
2026-04-29 20:21 60.43249 5.96159 15589 ft 368 kts 86°
2026-04-29 20:21 60.43268 6.01378 16254 ft 372 kts 86°
2026-04-29 20:21 60.43285 6.06656 16901 ft 376 kts 86°
2026-04-29 20:21 60.43300 6.11978 17397 ft 380 kts 86°
2026-04-29 20:22 60.43313 6.17276 17466 ft 379 kts 86°
2026-04-29 20:22 60.43323 6.22630 17464 ft 379 kts 86°
2026-04-29 20:22 60.43331 6.27946 17466 ft 377 kts 86°
2026-04-29 20:22 60.43339 6.33272 17464 ft 378 kts 86°
2026-04-29 20:23 60.43344 6.38602 17466 ft 377 kts 87°
2026-04-29 20:23 60.43338 6.43923 17473 ft 380 kts 89°
2026-04-29 20:23 60.43176 6.49267 17476 ft 379 kts 90°
2026-04-29 20:23 60.43054 6.54533 17476 ft 379 kts 89°
2026-04-29 20:24 60.42933 6.59881 17475 ft 380 kts 90°
2026-04-29 20:24 60.42782 6.65221 17473 ft 379 kts 90°
2026-04-29 20:24 60.42619 6.70575 17473 ft 379 kts 90°
2026-04-29 20:24 60.42468 6.75904 17484 ft 378 kts 90°
2026-04-29 20:25 60.42321 6.81198 17480 ft 377 kts 90°
2026-04-29 20:25 60.42170 6.86438 17485 ft 378 kts 90°
2026-04-29 20:25 60.42011 6.91750 17484 ft 377 kts 90°
2026-04-29 20:25 60.41850 6.97057 17485 ft 377 kts 90°
2026-04-29 20:26 60.41690 7.02368 17489 ft 378 kts 90°
2026-04-29 20:26 60.41527 7.07680 17489 ft 378 kts 90°
2026-04-29 20:26 60.41361 7.12986 17489 ft 377 kts 90°
2026-04-29 20:26 60.41195 7.18239 17493 ft 378 kts 90°
2026-04-29 20:27 60.41025 7.23559 17487 ft 377 kts 90°
2026-04-29 20:27 60.40912 7.27069 17485 ft 377 kts 90°
2026-04-29 20:27 60.40679 7.34175 17483 ft 377 kts 90°
2026-04-29 20:27 60.40506 7.39402 17481 ft 377 kts 90°
2026-04-29 20:28 60.40329 7.44686 17486 ft 376 kts 90°
2026-04-29 20:28 60.40148 7.49973 17487 ft 375 kts 90°
2026-04-29 20:28 60.39967 7.55259 17481 ft 376 kts 90°
2026-04-29 20:28 60.39784 7.60532 17482 ft 375 kts 90°
2026-04-29 20:29 60.39599 7.65787 17482 ft 375 kts 90°
2026-04-29 20:29 60.39411 7.71057 17481 ft 375 kts 90°
2026-04-29 20:29 60.39224 7.76257 17481 ft 375 kts 90°
2026-04-29 20:29 60.39032 7.81544 17482 ft 375 kts 90°
2026-04-29 20:30 60.38839 7.86767 17471 ft 375 kts 90°
2026-04-29 20:30 60.38643 7.92052 17471 ft 375 kts 90°
2026-04-29 20:30 60.38445 7.97328 17472 ft 376 kts 90°
2026-04-29 20:30 60.38244 8.02614 17472 ft 376 kts 91°
2026-04-29 20:31 60.38044 8.07822 17472 ft 376 kts 91°
2026-04-29 20:31 60.37839 8.13102 17471 ft 377 kts 90°
2026-04-29 20:31 60.37633 8.18384 17469 ft 377 kts 90°
2026-04-29 20:31 60.37424 8.23610 17460 ft 366 kts 90°
2026-04-29 20:32 60.37219 8.28702 17460 ft 362 kts 90°
2026-04-29 20:32 60.37017 8.33787 17460 ft 362 kts 90°
2026-04-29 20:32 60.36812 8.38856 17443 ft 362 kts 90°
2026-04-29 20:32 60.36602 8.43924 17441 ft 361 kts 90°
2026-04-29 20:33 60.36394 8.48925 17445 ft 361 kts 90°
2026-04-29 20:33 60.36182 8.53994 17439 ft 362 kts 90°
2026-04-29 20:33 60.35968 8.59070 17404 ft 363 kts 91°
2026-04-29 20:33 60.35752 8.64131 17053 ft 361 kts 91°
2026-04-29 20:34 60.35534 8.69172 16558 ft 359 kts 91°
2026-04-29 20:34 60.35316 8.74188 16068 ft 357 kts 91°
2026-04-29 20:34 60.35098 8.79170 15612 ft 354 kts 91°
2026-04-29 20:34 60.34879 8.84116 15112 ft 352 kts 91°
2026-04-29 20:35 60.34664 8.88954 14653 ft 349 kts 91°
2026-04-29 20:35 60.34445 8.93832 14210 ft 347 kts 91°
2026-04-29 20:35 60.34225 8.98678 13728 ft 344 kts 91°